This demonstration page uses our WeatherBlox Daily Observations layout. Learn more.

Left ArrowRight Arrow

34.74481, -87.66753

Hourly Observations for December 9, 2019

Temp ( °F °C ) Dew Point ( °F °C ) Humidity (%) Winds ( mph kmh ) Pressure ( in mb ) Visibility ( mi km ) Precip ( " mm )
12:53 am 00:53 Cloudy 59 15 53 11.7 81 81 SSE 10 17 29.95 1014 10 16 0.00 0.00
1:53 am 01:53 Cloudy 59 15 54 12.2 83 83 SSE 12 19 29.93 1014 10 16 0.00 0.00
2:53 am 02:53 Cloudy 60 15.6 54 12.2 80 80 SSE 14 22 29.91 1013 10 16 0.00 0.00
3:53 am 03:53 Cloudy 60 15.6 55 12.8 84 84 S 12 19 29.90 1013 10 16 0.00 0.00
4:53 am 04:53 Cloudy 60 15.6 53 11.7 78 78 S 9 15 29.91 1013 10 16 0.00 0.00
5:53 am 05:53 Cloudy 60 15.6 56 13.3 86 86 S 10 17 29.89 1012 10 16 0.00 0.00
6:53 am 06:53 Cloudy 60 15.6 56 13.3 86 86 S 12 19 29.89 1012 10 16 0.00 0.00
7:53 am 07:53 Cloudy 61 16.1 57 13.9 87 87 S 13 20 29.88 1012 10 16 0.00 0.00
8:53 am 08:53 Cloudy 63 17.2 56 13.3 78 78 SSW 15 24 29.88 1012 10 16 0.00 0.00
9:53 am 09:53 Cloudy 63 17.2 57 13.9 81 81 S 17 28 29.86 1011 10 16 0.00 0.00
10:53 am 10:53 Cloudy 64 17.8 58 14.4 81 81 SSW 16 26 29.84 1011 10 16 0.00 0.00
11:53 am 11:53 Cloudy 66 18.9 59 15 78 78 SSW 16 26 29.80 1009 10 16 0.00 0.00
12:53 pm 12:53 Cloudy 66 18.9 59 15 78 78 SSW 17 28 29.78 1008 10 16 0.00 0.00
1:53 pm 13:53 Cloudy 67 19.4 60 15.6 79 79 SSW 17 28 29.79 1009 10 16 0.00 0.00
2:53 pm 14:53 Cloudy 67 19.4 61 16.1 81 81 SSW 14 22 29.79 1009 10 16 0.00 0.00
3:53 pm 15:53 Cloudy 67 19.4 61 16.1 81 81 SSW 14 22 29.80 1009 10 16 0.00 0.00
4:53 pm 16:53 Cloudy 68 20 61 16.1 78 78 SSW 13 20 29.82 1010 10 16 0.00 0.00
5:53 pm 17:53 Cloudy 67 19.4 62 16.7 84 84 WSW 8 13 29.84 1011 10 16 0.00 0.00
6:53 pm 18:53 Cloudy 68 20 62 16.7 81 81 WSW 9 15 29.86 1011 10 16 0.00 0.00
7:09 pm 19:09 Mostly Cloudy 68 20 62 16.7 81 81 SW 7 11 29.86 1011 10 16 0.00 0.00
7:53 pm 19:53 Clear 69 20.6 62 16.7 78 78 SSW 13 20 29.85 1011 10 16 0.00 0.00
8:53 pm 20:53 Mostly Clear 68 20 62 16.7 81 81 SSW 10 17 29.85 1011 10 16 0.00 0.00
9:53 pm 21:53 Mostly Cloudy 67 19.4 62 16.7 84 84 SSW 9 15 29.85 1011 10 16 0.00 0.00
10:53 pm 22:53 Mostly Cloudy 67 19.4 62 16.7 84 84 SSW 7 11 29.85 1011 10 16 0.00 0.00
11:28 pm 23:28 Mostly Cloudy 67 19.4 61 16.1 81 81 NW 9 15 29.87 1011 10 16 0.00 0.00
11:44 pm 23:44 Cloudy 66 18.9 59 15 78 78 NW 12 19 29.86 1011 10 16 0.00 0.00
11:53 pm 23:53 Cloudy 66 18.9 58 14.4 75 75 NW 9 15 29.86 1011 10 16 0.00 0.00

Powered by AerisWeather